DW7628 Weather Reports


time (UTC)temp
C
wind
direction
speed
KPH
gust
KPH
rain 1hr
cm
rain 24hr
cm
rain mn
cm
humidity
%
barometer
mb
20260506182307 17 356 0.0 0.0 0.00 0.00 0.00 60 1009.2
20260506181806 17 79 0.0 0.0 0.00 0.00 0.00 60 1009.4
20260506181306 17 311 0.0 0.0 0.00 0.00 0.00 60 1009.5
20260506180805 17 357 0.0 0.0 0.00 0.00 0.00 60 1009.7
20260506180306 17 101 0.0 0.0 0.00 0.00 0.00 60 1010.0
20260506175306 18 111 0.0 0.0 0.00 0.00 0.00 60 1010.3
20260506174305 18 66 0.0 0.0 0.00 0.00 0.00 60 1010.6
20260506173806 18 128 0.0 0.0 0.00 0.00 0.00 60 1010.6
20260506173305 18 111 0.0 0.0 0.00 0.00 0.00 60 1010.6
20260506172806 18 138 0.0 0.0 0.00 0.00 0.00 60 1010.5
20260506172307 18 86 0.0 0.0 0.00 0.00 0.00 60 1010.5
20260506171806 18 100 0.0 0.0 0.00 0.00 0.00 61 1010.5
20260506170805 19 69 0.0 0.0 0.00 0.00 0.00 60 1010.5
20260506170305 19 83 0.0 0.0 0.00 0.00 0.00 60 1010.6
20260506165806 19 118 0.0 0.0 0.00 0.00 0.00 60 1010.3
20260506165306 20 78 0.0 0.0 0.00 0.00 0.00 60 1010.1
20260506164305 20 156 0.0 0.0 0.00 0.00 0.00 59 1009.9
20260506163805 20 133 0.0 0.0 0.00 0.00 0.00 59 1009.9
20260506163306 20 36 0.0 0.0 0.00 0.00 0.00 59 1010.0
20260506162805 20 22 0.0 0.0 0.00 0.00 0.00 59 1010.2
20260506162307 21 83 0.0 0.0 0.00 0.00 0.00 58 1010.1
20260506161805 21 175 0.0 0.0 0.00 0.00 0.00 57 1010.1
20260506161307 21 98 0.0 0.0 0.00 0.00 0.00 55 1010.0
20260506160805 21 75 0.0 0.0 0.00 0.00 0.00 48 1009.9
20260506160306 21 84 0.0 0.0 0.00 0.00 0.00 47 1009.8
20260506155306 21 82 0.0 0.0 0.00 0.00 0.00 46 1010.0
20260506154805 21 29 0.0 0.0 0.00 0.00 0.00 46 1010.3
20260506154306 21 79 0.0 0.0 0.00 0.00 0.00 45 1010.4
20260506153805 21 93 0.0 0.0 0.00 0.00 0.00 45 1010.5
20260506153305 21 317 0.0 0.0 0.00 0.00 0.00 44 1010.6
20260506152805 21 87 0.0 0.0 0.00 0.00 0.00 44 1010.7
20260506152306 21 237 0.0 0.0 0.00 0.00 0.00 45 1010.8
20260506151805 21 85 0.0 0.0 0.00 0.00 0.00 45 1010.8
20260506151305 21 159 0.0 0.0 0.00 0.00 0.00 45 1010.7
20260506150805 21 92 0.0 0.0 0.00 0.00 0.00 45 1010.8
20260506150305 21 211 0.0 0.0 0.00 0.00 0.00 45 1010.8
20260506145805 21 240 0.0 0.0 0.00 0.00 0.00 45 1010.8
20260506145306 21 157 0.0 0.0 0.00 0.00 0.00 45 1010.8
20260506144805 21 77 0.0 0.0 0.00 0.00 0.00 45 1010.9
20260506144305 21 105 0.0 0.0 0.00 0.00 0.00 47 1010.9
20260506143805 21 267 0.0 0.0 0.00 0.00 0.00 47 1011.0
20260506143305 21 86 0.0 0.0 0.00 0.00 0.00 46 1011.0
20260506142806 21 83 0.0 0.0 0.00 0.00 0.00 45 1011.0
20260506142306 21 67 0.0 0.0 0.00 0.00 0.00 46 1011.1
20260506141805 21 227 0.0 0.0 0.00 0.00 0.00 47 1011.0
20260506141305 21 165 0.0 0.0 0.00 0.00 0.00 48 1011.1
20260506140805 21 201 0.0 0.0 0.00 0.00 0.00 49 1011.1
20260506140305 21 74 0.0 0.0 0.00 0.00 0.00 49 1011.1
20260506135306 21 208 0.0 0.0 0.00 0.00 0.00 49 1011.2
20260506134805 21 194 0.0 0.0 0.00 0.00 0.00 49 1011.3
20260506133305 21 230 0.0 0.0 0.00 0.00 0.00 51 1011.3
20260506132805 21 248 0.0 0.0 0.00 0.00 0.00 51 1011.3
20260506132307 21 152 0.0 0.0 0.00 0.00 0.00 51 1011.4
20260506131806 22 61 0.0 0.0 0.00 0.00 0.00 49 1011.4
20260506131306 22 297 0.0 0.0 0.00 0.00 0.00 47 1011.5
20260506130805 22 246 0.0 0.0 0.00 0.00 0.00 44 1011.7
20260506130306 23 204 0.0 0.0 0.00 0.00 0.00 40 1011.8
20260506125805 23 161 0.0 0.0 0.00 0.00 0.00 38 1011.6
20260506124805 23 204 0.0 0.0 0.00 0.00 0.00 33 1011.7
20260506124305 23 133 0.0 0.0 0.00 0.00 0.00 31 1011.6
20260506123306 23 291 0.0 0.0 0.00 0.00 0.00 28 1011.4
20260506122805 23 252 0.0 0.0 0.00 0.00 0.00 27 1011.5
20260506122306 23 198 0.0 0.0 0.00 0.00 0.00 26 1011.4
20260506121805 23 65 0.0 0.0 0.00 0.00 0.00 29 1011.3
20260506121305 22 79 0.0 0.0 0.00 0.00 0.00 30 1011.2
20260506120805 22 89 0.0 0.0 0.00 0.00 0.00 31 1011.3
20260506120305 22 57 0.0 0.0 0.00 0.00 0.00 32 1011.4
20260506115805 22 123 0.0 0.0 0.00 0.00 0.00 32 1011.5
20260506115307 22 86 0.0 0.0 0.00 0.00 0.00 32 1011.5
20260506114805 22 80 0.0 0.0 0.00 0.00 0.00 32 1011.4
20260506114305 22 53 0.0 0.0 0.00 0.00 0.00 32 1011.4
20260506113804 22 79 0.0 0.0 0.00 0.00 0.00 32 1011.5
20260506113305 22 274 0.0 0.0 0.00 0.00 0.00 30 1011.4
20260506112804 22 80 0.0 0.0 0.00 0.00 0.00 29 1011.5
20260506111805 22 205 0.0 0.0 0.00 0.00 0.00 30 1011.8
20260506111305 22 89 0.0 0.0 0.00 0.00 0.00 32 1011.9
20260506110805 22 194 0.0 0.0 0.00 0.00 0.00 34 1012.1
20260506105804 21 121 0.0 0.0 0.00 0.00 0.00 35 1012.2
20260506105305 21 74 0.0 0.0 0.00 0.00 0.00 36 1012.3
20260506104804 21 75 0.0 0.0 0.00 0.00 0.00 35 1012.4
20260506104305 21 149 0.0 0.0 0.00 0.00 0.00 35 1012.4
20260506103805 21 69 0.0 0.0 0.00 0.00 0.00 35 1012.4
20260506103305 21 202 0.0 0.0 0.00 0.00 0.00 35 1012.4
20260506102306 21 77 0.0 0.0 0.00 0.00 0.00 34 1012.3
20260506101805 21 91 0.0 0.0 0.00 0.00 0.00 36 1012.5
20260506101305 21 85 0.0 0.0 0.00 0.00 0.00 35 1012.4
20260506100805 21 94 0.0 0.0 0.00 0.00 0.00 36 1012.3
20260506094805 20 73 0.0 0.0 0.00 0.00 0.00 38 1012.6
20260506094305 20 77 0.0 0.0 0.00 0.00 0.00 40 1012.6
20260506093805 20 277 0.0 0.0 0.00 0.00 0.00 42 1012.5
20260506093304 19 78 0.0 0.0 0.00 0.00 0.00 42 1012.6
20260506092806 20 80 0.0 0.0 0.00 0.00 0.00 42 1012.8
20260506092306 20 218 0.0 0.0 0.00 0.00 0.00 42 1012.9
20260506091804 20 281 0.0 0.0 0.00 0.00 0.00 43 1012.8
20260506091306 19 90 0.0 0.0 0.00 0.00 0.00 43 1012.7
20260506090805 19 72 0.0 0.0 0.00 0.00 0.00 44 1012.7
20260506090305 19 227 0.0 0.0 0.00 0.00 0.00 45 1012.8
20260506085805 18 89 0.0 0.0 0.00 0.00 0.00 46 1012.8
20260506084305 18 68 0.0 0.0 0.00 0.00 0.00 45 1013.0
20260506083805 18 109 0.0 0.0 0.00 0.00 0.00 45 1013.0
20260506083305 18 120 0.0 0.0 0.00 0.00 0.00 46 1013.0
20260506082804 18 89 0.0 0.0 0.00 0.00 0.00 45 1013.0
20260506082305 18 83 0.0 0.0 0.00 0.00 0.00 46 1013.0
20260506081805 18 70 0.0 0.0 0.00 0.00 0.00 44 1013.0
20260506081305 18 116 0.0 0.0 0.00 0.00 0.00 45 1013.0
20260506080805 18 128 0.0 0.0 0.00 0.00 0.00 45 1012.9
20260506080305 17 91 0.0 0.0 0.00 0.00 0.00 46 1012.9
20260506072804 16 85 0.0 0.0 0.00 0.00 0.00 53 1012.5
20260506072306 16 243 0.0 0.0 0.00 0.00 0.00 54 1012.5
20260506071804 16 111 0.0 0.0 0.00 0.00 0.00 54 1012.5
20260506071305 16 89 0.0 0.0 0.00 0.00 0.00 54 1012.5
20260506070805 16 58 0.0 0.0 0.00 0.00 0.00 54 1012.4
20260506070304 16 231 0.0 0.0 0.00 0.00 0.00 53 1012.5
20260506062306 16 113 0.0 0.0 0.00 0.00 0.00 60 1012.9
20260506061804 15 76 0.0 0.0 0.00 0.00 0.00 61 1013.0
20260506061305 15 79 0.0 0.0 0.00 0.00 0.00 61 1013.0
20260506060305 15 254 0.0 0.0 0.00 0.00 0.00 63 1013.0
20260506051304 14 117 0.0 0.0 0.00 0.00 0.00 58 1012.8
20260506050804 14 98 0.0 0.0 0.00 0.00 0.00 60 1012.8
20260506050304 14 16 0.0 0.0 0.00 0.00 0.00 61 1012.8
20260506044805 13 16 0.0 0.0 0.00 0.00 0.00 62 1012.8
20260506043804 14 16 0.0 0.0 0.00 0.00 0.00 61 1012.7
20260506043304 14 16 0.0 0.0 0.00 0.00 0.00 61 1012.8
20260506042305 14 16 0.0 0.0 0.00 0.00 0.00 61 1012.8
20260506041304 14 28 0.0 0.0 0.00 0.00 0.00 60 1012.7
20260506040804 14 28 0.0 0.0 0.00 0.00 0.00 59 1012.6
20260506035804 15 238 0.0 0.0 0.00 0.00 0.00 56 1012.5
20260506035306 15 238 0.0 0.0 0.00 0.00 0.00 57 1012.4
20260506034303 15 241 0.0 0.0 0.00 0.00 0.00 58 1012.3
20260506033804 15 75 0.0 0.0 0.00 0.00 0.00 60 1011.8
20260506033304 15 121 0.0 0.0 0.00 0.00 0.00 58 1011.9
20260506032805 15 32 0.0 0.0 0.00 0.00 0.00 57 1011.9
20260506032305 15 32 0.0 0.0 0.00 0.00 0.00 57 1012.1
20260506031804 15 32 0.0 0.0 0.00 0.00 0.00 56 1011.9
20260506031304 15 135 0.0 0.0 0.00 0.00 0.00 56 1011.9
20260506030804 15 89 0.0 0.0 0.00 0.00 0.00 56 1011.9
20260506030304 15 21 0.0 0.0 0.00 0.00 0.00 56 1012.1
20260506025804 15 19 0.0 0.0 0.00 0.00 0.00 56 1012.1
20260506024804 15 119 0.0 0.0 0.00 0.00 0.00 57 1012.2
20260506024304 15 157 0.0 0.0 0.00 0.00 0.00 57 1012.3
20260506023803 15 159 0.0 0.0 0.00 0.00 0.00 58 1012.4
20260506023304 15 243 0.0 0.0 0.00 0.00 0.00 59 1012.5
20260506022803 15 72 0.0 0.0 0.00 0.00 0.00 60 1012.3
20260506022306 15 151 0.0 0.0 0.00 0.00 0.00 61 1012.4
20260506021804 15 162 0.0 0.0 0.00 0.00 0.00 61 1012.4
20260506021304 15 51 0.0 0.0 0.00 0.00 0.00 63 1012.5
20260506020804 15 51 0.0 0.0 0.00 0.00 0.00 63 1012.7
20260506020303 15 47 0.0 0.0 0.00 0.00 0.00 62 1012.7
20260506015804 15 290 0.0 0.0 0.00 0.00 0.00 62 1012.7
20260506015305 15 304 0.0 0.0 0.00 0.00 0.00 62 1012.7
20260506014804 15 304 0.0 0.0 0.00 0.00 0.00 61 1012.6
20260506014304 15 141 0.0 0.0 0.00 0.00 0.00 61 1012.4
20260506013804 15 85 0.0 0.0 0.00 0.00 0.00 61 1012.4
20260506013304 15 80 0.0 0.0 0.00 0.00 0.00 61 1012.4
20260506012804 15 309 0.0 0.0 0.00 0.00 0.00 63 1012.9
20260506011804 15 59 0.0 0.0 0.00 0.00 0.00 62 1012.2
20260506011304 15 82 0.0 0.0 0.00 0.00 0.00 60 1012.4
20260506010804 15 232 0.0 0.0 0.00 0.00 0.00 59 1012.5
20260506010304 15 105 0.0 0.0 0.00 0.00 0.00 58 1011.9
20260506005804 15 86 0.0 0.0 0.00 0.00 0.00 60 1012.3
20260506004804 15 82 0.0 0.0 0.00 0.00 0.00 59 1012.5
20260506003804 15 257 0.0 0.0 0.00 0.00 0.00 60 1012.8
20260506003304 15 108 0.0 0.0 0.00 0.00 0.00 61 1012.6
20260506002806 15 76 0.0 0.0 0.00 0.00 0.00 61 1012.8
20260506002307 15 82 0.0 0.0 0.00 0.00 0.00 61 1012.8
20260506001806 15 87 0.0 0.0 0.00 0.00 0.00 62 1013.1
20260506001306 15 87 0.0 0.0 0.00 0.00 0.00 62 1013.2
20260506000806 15 87 0.0 0.0 0.00 0.00 0.00 63 1013.0
20260506000306 15 102 0.0 0.0 0.00 0.00 0.00 63 1013.1
20260505235807 15 76 0.0 0.0 0.00 0.00 0.00 64 1013.3
20260505235306 15 259 0.0 0.0 0.00 0.00 0.00 63 1013.4
20260505234807 15 250 0.0 0.0 0.00 0.00 0.00 63 1013.3
20260505233806 15 108 0.0 0.0 0.00 0.00 0.00 66 1013.2
20260505233306 15 73 0.0 0.0 0.00 0.00 0.00 66 1013.2
20260505232805 15 78 0.0 0.0 0.00 0.00 0.00 67 1013.5
20260505232307 15 78 0.0 0.0 0.00 0.00 0.00 66 1013.4
20260505231806 15 84 0.0 0.0 0.00 0.00 0.00 66 1013.3
20260505231306 15 138 0.0 0.0 0.00 0.00 0.00 66 1013.4
20260505230806 15 129 0.0 0.0 0.00 0.00 0.00 67 1013.4
20260505225806 15 80 0.0 0.0 0.00 0.00 0.00 69 1013.5
20260505223806 15 85 0.0 0.0 0.00 0.00 0.00 71 1013.5
20260505223305 15 79 0.0 0.0 0.00 0.00 0.00 73 1013.5
20260505222806 15 90 0.0 0.0 0.00 0.00 0.00 74 1013.6
20260505222306 15 256 0.0 0.0 0.00 0.00 0.00 75 1013.8
20260505221806 15 246 0.0 0.0 0.00 0.00 0.00 75 1013.8
20260505221305 15 236 0.0 0.0 0.00 0.00 0.00 76 1013.8
20260505214807 15 55 0.0 0.0 0.00 0.00 0.00 76 1013.8
20260505214306 15 100 0.0 0.0 0.00 0.00 0.00 76 1013.8
20260505213806 15 84 0.0 0.0 0.00 0.00 0.00 76 1013.8
20260505213306 15 89 0.0 0.0 0.00 0.00 0.00 75 1013.8
20260505212807 15 86 0.0 0.0 0.00 0.00 0.00 75 1013.9
20260505212306 15 82 0.0 0.0 0.00 0.00 0.00 74 1014.0
20260505211305 15 70 0.0 0.0 0.00 0.00 0.00 74 1014.1
20260505210807 15 86 0.0 0.0 0.00 0.00 0.00 74 1014.1
20260505210305 15 222 0.0 0.0 0.00 0.00 0.00 74 1014.2
20260505204806 15 214 0.0 0.0 0.00 0.00 0.00 76 1014.2
20260505204305 15 76 0.0 0.0 0.00 0.00 0.00 75 1014.3
20260505203806 15 87 0.0 0.0 0.00 0.00 0.00 75 1014.2
20260505202807 15 133 0.0 0.0 0.00 0.00 0.00 75 1014.4
20260505202307 15 59 0.0 0.0 0.00 0.00 0.00 75 1014.4
20260505201305 15 133 0.0 0.0 0.00 0.00 0.00 74 1014.4
20260505200806 15 91 0.0 0.0 0.00 0.00 0.00 73 1014.4
20260505200306 15 90 0.0 0.0 0.00 0.00 0.00 74 1014.4
20260505195806 15 222 0.0 0.0 0.00 0.00 0.00 73 1014.4
20260505195305 15 262 0.0 0.0 0.00 0.00 0.00 74 1014.3
20260505194806 15 294 0.0 0.0 0.00 0.00 0.00 75 1014.3
20260505194306 15 157 0.0 0.0 0.00 0.00 0.00 75 1014.3
20260505193805 15 156 0.0 0.0 0.00 0.00 0.00 75 1014.4
20260505193306 15 267 0.0 0.0 0.00 0.00 0.00 74 1014.4
20260505192806 15 229 0.0 0.0 0.00 0.00 0.00 75 1014.2
20260505192306 15 165 0.0 0.0 0.00 0.00 0.00 75 1014.1
20260505191806 15 150 0.0 0.0 0.00 0.00 0.00 74 1014.0
20260505191306 15 79 0.0 0.0 0.00 0.00 0.00 74 1013.9
20260505190806 15 99 0.0 0.0 0.00 0.00 0.00 74 1014.0
20260505190305 15 131 0.0 0.0 0.00 0.00 0.00 73 1014.0
20260505185806 15 102 0.0 0.0 0.00 0.00 0.00 73 1013.9
20260505185306 15 171 0.0 0.0 0.00 0.00 0.00 73 1014.0
20260505184806 15 140 0.0 0.0 0.00 0.00 0.00 73 1014.0
20260505184305 15 233 0.0 0.0 0.00 0.00 0.00 73 1013.9
20260505183805 16 85 0.0 0.0 0.00 0.00 0.00 72 1013.9
20260505182806 16 215 0.0 0.0 0.00 0.00 0.00 71 1013.8